星链-4402 (STARLINK-4402 )

导读

STARLINK-4402是美国太空探索技术公司SpaceX星链星座中的一颗卫星,于2022年8月12日发射入轨,属于星链互联网卫星组网的一部分。星链项目旨在通过大规模低轨卫星星座,为全球提供高速低延迟的宽带互联网服务,该卫星承担着覆盖组网,推进全球互联网接入普及的任务。

Basic Information
目录编号:
53509
目录名称:
STARLINK-4402
国际标识:
2022-099AW
轨道中心:
EARTH
卫星名称:
星链-4402
卫星全名:
星链-4402 (STARLINK-4402 )
卫星状态:
在轨 (已飞行1492 天)
发射日期:
2022-08-12 UTC
国别 :
美国 (US)
星等 :
--
This satellite is enrolled in the Space Conjunction Data Service (SCDS) and the current flight risk assessment level is: No High Risk
Orbit Information
数据来源 国际轨道数据
星历时间: 2026-09-12T12:00:02+0800
6小时前
查看轨道信息
半长轴: 6734.046km
偏心率: 0.0001718
轨道倾角: 97.606°
近地点辐角 66.481°
升交点赤经 24.962°
平近点角 101.328°
近地点: 354.752km
远地点: 357.066km
周期: 91.659分钟
每日圈数: 15.710451
Detailed Information
固有亮度:
5
最大亮度:
2.5
卫星平台:
Starlink v1.5
覆盖范围:
全球
运营商:
太空探索技术公司
运营商所在国:
美国
制造商(研发单位):
太空探索技术公司
制造商所在国:
美国
使用方式:
暂无
Satellite Introduction
星链(Starlink)计划是由太空探索技术公司(SpaceX)提出的一个巨型低轨卫星互联网星座项目,计划在2019年至2024年间在太空搭建由约1.2万颗卫星组成的“星链”网络,其中1584颗将部署在地球上空550千米处的近地轨道,并从2020年开始工作。该卫星仍在工作。
2D Orbit Map
3D Orbit Map
Orbit Altitude Analysis Chart
Orbit Inclination Analysis Chart
Orbit Comprehensive Analysis Chart
View Comprehensive Chart
Conjunction Data List
Event ID Objects TCA Miss Dist (km) Collision Risk Probability Collision Risk Index (CRI) Action
CDM_260913-185505-350906-310721
2026-09-13T
18:55:24+0000
1.587 km
极远距离
5.443778E-6 低风险 0.5
CDM_260912-091405-350906-004223
2026-09-12T
09:14:33+0000
2.244 km
极远距离
1.445328E-6 低风险 0.38
CDM_260912-131005-350906-437721
2026-09-12T
13:10:39+0000
2.417 km
极远距离
1.221329E-6 低风险 0.37
CDM_260912-104605-350906-004222
2026-09-12T
10:46:19+0000
2.638 km
极远距离
1.080354E-6 低风险 0.36
Miss Distance Evolution Trend with All Objects
Collision Probability Evolution Trend with All Objects